User: anonymous   Login
Location: �terpigny
(49.8910°N, 2.9249°E)
Time: 07:36:54
(UTC+00:00)
Language:

Cosmos 2344 - Orbit

View from above orbital plane
View from above orbital plane
View from above satellite
View from above satellite

Ground track
Ground track

The orbit data is extracted from the following two-line orbital elements,

1 24827U 97028A   22016.82460519 -.00000198  00000-0 -17994-2 0  9997
2 24827  63.3182  28.4767 1045943  48.9549 112.4893 11.07948056995908
Epoch (UTC): 16 January 2022 19:47:25
Eccentricity: 0.1045943
inclination: 63.3182°
perigee height: 1232 km
apogee height: 3010 km
right ascension of ascending node: 28.4767°
argument of perigee: 48.9549°
revolutions per day: 11.07948056
mean anomaly at epoch: 112.4893°
orbit number at epoch: 99590

The dashed part of the orbit path shows where the satellite is in the earth's shadow,  

DLR